Weather History for KSZL - January, 2014

Change the Weather History Date:

Wednesday, January 15, 2014

  Actual Average (KDMO) Record (KDMO)
Temperature  
Mean Temperature 25 °F 31 °F  
Max Temperature 34 °F 40 °F - ()
Min Temperature 18 °F 23 °F - ()
Degree Days  
Heating Degree Days 40 34  
Month to date heating degree days 508  
Since 1 July heating degree days 2289  
Cooling Degree Days 0 0  
Month to date cooling degree days 0  
Year to date cooling degree days 0  
Moisture  
Dew Point 10 °F    
Average Humidity 53    
Maximum Humidity 68    
Minimum Humidity 31    
Precipitation  
Precipitation 0.00 in 0.06 in - ()
Month to date precipitation 0.74  
Year to date precipitation 0.74  
Sea Level Pressure  
Sea Level Pressure 30.15 in    
Wind  
Wind Speed 10 mph (West)    
Max Wind Speed 17 mph    
Max Gust Speed 20 mph    
Visibility 10 miles    
Events      
T = Trace of Precipitation, MM = Missing Value Source: NWS Daily Summary

Daily Weather History Graph

Daily Weather History Graph

Search for Another Location

Airport or City:

Trip Planner

Search our weather history database for the weather conditions in past years. The results will help you decide how hot, cold, wet, or windy it might be!

Date:

Astronomy

Jan. 15, 2014 Rise Set
Actual Time 7:30 AM CST 5:16 PM CST
Civil Twilight 7:01 AM CST 5:45 PM CST
Nautical Twilight 6:28 AM CST 6:18 PM CST
Astronomical Twilight 5:57 AM CST 6:50 PM CST
Moon 5:14 PM CST (1/15) 6:47 AM CST (1/15)
Length of Visible Light 10h 44m
Length of Day
9h 46m
Full, 100% of the Moon is Illuminated
Jan 15
Full
Jan 15
Full
Jan 23
Last Quarter
Jan 30
New
Feb 6
First Quarter

Hourly Weather History & Observations

Time (CST) Temp. Windchill Dew Point Humidity Pressure Visibility Wind Dir Wind Speed Gust Speed Precip Events Conditions
12:58 AM 24.6 °F 13.2 °F 11.3 °F 57% 30.21 in 10.0 mi NW 12.7 mph 19.6 mph N/A   Clear
1:58 AM 23.7 °F 14.7 °F 10.9 °F 58% 30.22 in 10.0 mi NW 8.1 mph - N/A   Clear
2:58 AM 22.6 °F 11.9 °F 11.1 °F 61% 30.23 in 10.0 mi WNW 10.4 mph - N/A   Clear
3:58 AM 21.6 °F 10.6 °F 10.4 °F 62% 30.23 in 10.0 mi WNW 10.4 mph - N/A   Partly Cloudy
4:58 AM 20.7 °F 8.8 °F 9.7 °F 63% 30.24 in 10.0 mi WNW 11.5 mph - N/A   Clear
5:58 AM 19.2 °F 6.4 °F 9.7 °F 66% 30.25 in 10.0 mi NW 12.7 mph - N/A   Clear
6:58 AM 18.5 °F 7.5 °F 9.0 °F 66% 30.25 in 10.0 mi NW 9.2 mph - N/A   Clear
7:58 AM 18.0 °F 6.1 °F 9.1 °F 68% 30.25 in 10.0 mi WNW 10.4 mph - N/A   Clear
8:58 AM 20.1 °F 8.8 °F 10.0 °F 65% 30.27 in 10.0 mi NW 10.4 mph - N/A   Partly Cloudy
9:58 AM 22.5 °F 12.4 °F 9.5 °F 58% 30.29 in 10.0 mi NW 9.2 mph - N/A   Clear
10:58 AM 23.9 °F 18.0 °F 8.8 °F 53% 30.27 in 10.0 mi NNW 4.6 mph - N/A   Partly Cloudy
11:58 AM 26.4 °F 18.0 °F 6.8 °F 43% 30.25 in 10.0 mi WNW 8.1 mph - N/A   Partly Cloudy
12:58 PM 28.0 °F 21.7 °F 6.4 °F 40% 30.20 in 10.0 mi WNW 5.8 mph - N/A   Clear
1:58 PM 30.0 °F 24.1 °F 6.1 °F 36% 30.18 in 10.0 mi WSW 5.8 mph - N/A   Partly Cloudy
2:58 PM 31.1 °F 21.9 °F 5.4 °F 34% 30.15 in 10.0 mi West 11.5 mph - N/A   Scattered Clouds
3:58 PM 31.8 °F 24.6 °F 4.1 °F 31% 30.13 in 10.0 mi WSW 8.1 mph - N/A   Partly Cloudy
4:58 PM 29.1 °F 20.0 °F 5.4 °F 37% 30.10 in 10.0 mi SSW 10.4 mph - N/A   Clear
5:58 PM 25.2 °F 16.5 °F 10.0 °F 53% 30.09 in 10.0 mi South 8.1 mph - N/A   Mostly Cloudy
6:58 PM 25.9 °F 16.6 °F 11.5 °F 55% 30.06 in 10.0 mi SSW 9.2 mph - N/A   Mostly Cloudy
7:58 PM 27.7 °F 18.2 °F 12.7 °F 54% 30.01 in 10.0 mi SSW 10.4 mph - N/A   Mostly Cloudy
8:58 PM 29.3 °F 18.6 °F 13.6 °F 52% 29.97 in 10.0 mi South 13.8 mph - N/A   Mostly Cloudy
9:58 PM 31.1 °F 20.1 °F 17.1 °F 56% 29.93 in 10.0 mi SSW 16.1 mph - N/A   Mostly Cloudy
10:58 PM 32.5 °F 21.5 °F 18.5 °F 56% 29.90 in 10.0 mi SSW 17.3 mph - N/A   Mostly Cloudy
11:58 PM 34.0 °F 25.0 °F 20.1 °F 57% 29.87 in 10.0 mi SW 12.7 mph - N/A   Mostly Cloudy